カタログに戻る

CZ-6A DEB

運用中PO
NORAD 56246·DEBRIS·🇨🇳 China

打ち上げ Nov 11, 2022 から Taiyuan Satellite Launch Center

Loading…

次のパス (今後24時間)

TLE

最新Source: Space-Track

元期: Sep 14, 2026, 19:57 UTC

1 56246U 22151ABN 26257.83151070  .00017786  00000-0  13992-2 0  9996
2 56246  98.7205  33.9799 0103918 186.3837 173.6065 14.96687024188028

AllMySatでCZ-6A DEBをリアルタイム追跡

Download on the App Store